sat.trackr.live / text

‹ back to catalog

UNKNOWN

NORAD 85246

UNKNOWN UNKNOWN UNKNOWN

§ Identity

Operator
Country
Launch date
Launch site
Launch vehicle
Mass (kg)
RCS (m²)

External: N2YO · Heavens-Above

§ Orbital elements

Epoch: 2026-09-15T19:13:18.846048Z

Period
101.25 min
Inclination
98.0019°
Eccentricity
0.0220326
Mean motion
14.22248489 rev/d
Perigee alt
659.2 km
Apogee alt
976.3 km
Semi-major
7,195.9 km
B*
2.1299e-4
RAAN
241.6692°
Arg perigee
206.0290°
Mean anomaly
152.9678°
Rev number
66,244

§ Raw data

UNKNOWN1 85246U          26258.80091257  .00000564  00000+0  21299-3 0  99902 85246  98.0019 241.6692 0220326 206.0290 152.9678 14.22248489662442

JSON: /api/v1/satellites/85246 · /tle

For live sub-satellite position, see the globe view (requires WebGL).

§ Visibility from observer

Set your observer location to see the next 7 days of passes ≥ 10°. The values pass through the URL so the page stays shareable.

No JS? Fill the form by hand. The geolocation button needs JavaScript.